Location: Drocourt
(49.0571°N, 1.7669°E)
Time: 13:46:32
(UTC+00:00)

Vanguard 2 Rocket - Pass Details

Date: 21 April 2024
Orbit: 556 x 3304 km, 32.9° (Epoch: 22 May)

Event Time Altitude Azimuth Distance (km) Brightness Sun altitude
Rises 02:10:45 0° 272° (W) 7,241 11.2 -21.7°
Reaches altitude 10° 02:16:22 10° 264° (W) 6,263 10.7 -21.1°
Maximum altitude 02:32:23 33° 211° (SSW) 4,230 9.7 -19.4°
Drops below altitude 10° 02:45:02 10° 155° (SSE) 4,912 10.4 -18.0°
Sets 02:48:48 0° 146° (SE) 5,552 10.8 -17.6°
